| time (UTC) | temp F | wind direction | speed MPH | gust MPH | rain 1hr in | rain 24hr in | rain mn in | humidity % | barometer mb |
| 20260510194459 | 86 | 0.0 | 4.0 | 0.00 | 0.00 | 0.00 | 66 | 1013.5 | |
| 20260510193957 | 86 | 0.0 | 7.0 | 0.00 | 0.00 | 0.00 | 63 | 1013.5 | |
| 20260510193455 | 85 | 180 | 2.0 | 7.0 | 0.00 | 0.00 | 0.00 | 61 | 1013.6 |
| 20260510192951 | 85 | 1.0 | 8.0 | 0.00 | 0.00 | 0.00 | 65 | 1013.6 | |
| 20260510192451 | 85 | 172 | 3.0 | 8.0 | 0.00 | 0.00 | 0.00 | 64 | 1013.7 |
| 20260510191948 | 85 | 0.0 | 8.0 | 0.00 | 0.00 | 0.00 | 65 | 1013.6 | |
| 20260510191444 | 85 | 189 | 2.0 | 8.0 | 0.00 | 0.00 | 0.00 | 64 | 1013.6 |
| 20260510190943 | 85 | 180 | 1.0 | 6.0 | 0.00 | 0.00 | 0.00 | 63 | 1013.6 |
| 20260510190441 | 85 | 187 | 1.0 | 4.0 | 0.00 | 0.00 | 0.00 | 63 | 1013.6 |
| 20260510185938 | 85 | 153 | 1.0 | 6.0 | 0.00 | 0.00 | 0.00 | 64 | 1013.8 |
| 20260510185435 | 85 | 155 | 1.0 | 7.0 | 0.00 | 0.00 | 0.00 | 63 | 1013.7 |
| 20260510184933 | 84 | 0.0 | 7.0 | 0.00 | 0.00 | 0.00 | 69 | 1013.8 | |
| 20260510184431 | 84 | 203 | 1.0 | 7.0 | 0.00 | 0.00 | 0.00 | 65 | 1013.8 |
| 20260510183928 | 84 | 183 | 3.0 | 10.0 | 0.00 | 0.00 | 0.00 | 66 | 1013.8 |
| 20260510183424 | 84 | 155 | 1.0 | 10.0 | 0.00 | 0.00 | 0.00 | 67 | 1013.9 |
| 20260510182923 | 84 | 193 | 2.0 | 10.0 | 0.00 | 0.00 | 0.00 | 63 | 1013.9 |
| 20260510182420 | 84 | 150 | 2.0 | 7.0 | 0.00 | 0.00 | 0.00 | 67 | 1013.9 |
| 20260510181918 | 84 | 0.0 | 6.0 | 0.00 | 0.00 | 0.00 | 69 | 1013.9 | |
| 20260510181414 | 84 | 170 | 2.0 | 6.0 | 0.00 | 0.00 | 0.00 | 68 | 1013.9 |
| 20260510180913 | 83 | 142 | 1.0 | 6.0 | 0.00 | 0.00 | 0.00 | 68 | 1013.9 |
| 20260510180410 | 83 | 170 | 1.0 | 7.0 | 0.00 | 0.00 | 0.00 | 68 | 1014.0 |
| 20260510175908 | 83 | 150 | 3.0 | 7.0 | 0.00 | 0.01 | 0.00 | 69 | 1014.1 |
| 20260510175404 | 83 | 154 | 1.0 | 8.0 | 0.00 | 0.01 | 0.00 | 68 | 1014.1 |
| 20260510174903 | 83 | 189 | 2.0 | 8.0 | 0.00 | 0.01 | 0.00 | 68 | 1014.1 |
| 20260510174400 | 83 | 158 | 2.0 | 8.0 | 0.00 | 0.01 | 0.00 | 70 | 1014.1 |
| 20260510173858 | 83 | 194 | 3.0 | 8.0 | 0.00 | 0.01 | 0.00 | 70 | 1014.2 |
| 20260510173354 | 83 | 210 | 3.0 | 7.0 | 0.00 | 0.01 | 0.00 | 69 | 1014.3 |
| 20260510172853 | 83 | 180 | 2.0 | 7.0 | 0.00 | 0.01 | 0.00 | 69 | 1014.3 |
| 20260510172350 | 83 | 179 | 1.0 | 6.0 | 0.00 | 0.01 | 0.00 | 70 | 1014.4 |
| 20260510171848 | 82 | 164 | 2.0 | 8.0 | 0.00 | 0.01 | 0.00 | 71 | 1014.4 |
| 20260510171344 | 82 | 175 | 1.0 | 8.0 | 0.00 | 0.01 | 0.00 | 72 | 1014.4 |
| 20260510170842 | 82 | 176 | 2.0 | 8.0 | 0.00 | 0.01 | 0.00 | 73 | 1014.5 |
| 20260510170340 | 82 | 179 | 2.0 | 9.0 | 0.00 | 0.01 | 0.00 | 73 | 1014.6 |
| 20260510165837 | 81 | 159 | 1.0 | 9.0 | 0.00 | 0.03 | 0.00 | 74 | 1014.6 |
| 20260510165334 | 81 | 196 | 1.0 | 7.0 | 0.00 | 0.03 | 0.00 | 75 | 1014.7 |
| 20260510164832 | 81 | 180 | 2.0 | 7.0 | 0.00 | 0.03 | 0.00 | 74 | 1014.8 |
| 20260510164328 | 81 | 146 | 2.0 | 5.0 | 0.00 | 0.03 | 0.00 | 74 | 1014.9 |
| 20260510163827 | 81 | 1.0 | 6.0 | 0.00 | 0.03 | 0.00 | 74 | 1015.0 | |
| 20260510163324 | 81 | 0.0 | 6.0 | 0.00 | 0.03 | 0.00 | 76 | 1014.9 | |
| 20260510162822 | 81 | 162 | 1.0 | 7.0 | 0.00 | 0.03 | 0.00 | 75 | 1014.9 |
| 20260510162318 | 81 | 153 | 1.0 | 7.0 | 0.00 | 0.03 | 0.00 | 75 | 1014.9 |
| 20260510161817 | 81 | 146 | 1.0 | 3.0 | 0.00 | 0.03 | 0.00 | 76 | 1014.9 |
| 20260510161314 | 80 | 146 | 1.0 | 7.0 | 0.00 | 0.03 | 0.00 | 76 | 1014.9 |
| 20260510160812 | 80 | 146 | 1.0 | 7.0 | 0.00 | 0.03 | 0.00 | 77 | 1014.9 |
| 20260510160308 | 80 | 122 | 1.0 | 4.0 | 0.00 | 0.03 | 0.00 | 76 | 1014.9 |
| 20260510155807 | 80 | 0.0 | 7.0 | 0.00 | 0.03 | 0.00 | 76 | 1014.9 | |
| 20260510155306 | 80 | 101 | 2.0 | 7.0 | 0.00 | 0.03 | 0.00 | 76 | 1014.9 |
| 20260510154802 | 80 | 0.0 | 3.0 | 0.00 | 0.03 | 0.00 | 75 | 1014.9 | |
| 20260510154258 | 80 | 0.0 | 7.0 | 0.00 | 0.03 | 0.00 | 75 | 1014.9 | |
| 20260510153757 | 80 | 0.0 | 3.0 | 0.00 | 0.03 | 0.00 | 75 | 1014.9 | |
| 20260510153254 | 80 | 0.0 | 4.0 | 0.00 | 0.03 | 0.00 | 75 | 1014.9 | |
| 20260510152752 | 80 | 23 | 1.0 | 6.0 | 0.00 | 0.03 | 0.00 | 76 | 1014.9 |
| 20260510152248 | 79 | 0.0 | 6.0 | 0.00 | 0.03 | 0.00 | 76 | 1014.8 | |
| 20260510151747 | 79 | 0.0 | 2.0 | 0.00 | 0.03 | 0.00 | 77 | 1014.8 | |
| 20260510151244 | 78 | 0.0 | 3.0 | 0.00 | 0.03 | 0.00 | 78 | 1014.8 | |
| 20260510150741 | 78 | 311 | 1.0 | 6.0 | 0.00 | 0.03 | 0.00 | 78 | 1014.8 |
| 20260510150238 | 78 | 312 | 1.0 | 6.0 | 0.00 | 0.03 | 0.00 | 77 | 1014.8 |
| 20260510145736 | 78 | 0.0 | 3.0 | 0.00 | 0.03 | 0.00 | 78 | 1014.7 | |
| 20260510145234 | 77 | 1.0 | 3.0 | 0.00 | 0.03 | 0.00 | 78 | 1014.7 | |
| 20260510144732 | 77 | 0.0 | 3.0 | 0.00 | 0.03 | 0.00 | 79 | 1014.6 | |
| 20260510144228 | 77 | 0.0 | 3.0 | 0.00 | 0.03 | 0.00 | 79 | 1014.6 | |
| 20260510143726 | 77 | 0.0 | 1.0 | 0.00 | 0.03 | 0.00 | 80 | 1014.5 | |
| 20260510143224 | 76 | 0.0 | 5.0 | 0.00 | 0.03 | 0.00 | 81 | 1014.5 | |
| 20260510142721 | 75 | 0.0 | 5.0 | 0.00 | 0.03 | 0.00 | 81 | 1014.5 | |
| 20260510142218 | 75 | 0.0 | 2.0 | 0.00 | 0.03 | 0.00 | 81 | 1014.5 | |
| 20260510141716 | 75 | 0.0 | 2.0 | 0.00 | 0.03 | 0.00 | 82 | 1014.4 | |
| 20260510141212 | 74 | 0.0 | 0.0 | 0.00 | 0.03 | 0.00 | 83 | 1014.4 | |
| 20260510140711 | 74 | 0.0 | 3.0 | 0.00 | 0.03 | 0.00 | 84 | 1014.4 | |
| 20260510140208 | 74 | 265 | 1.0 | 3.0 | 0.00 | 0.03 | 0.00 | 83 | 1014.3 |
| 20260510135706 | 73 | 0.0 | 3.0 | 0.00 | 0.03 | 0.00 | 84 | 1014.2 | |
| 20260510135202 | 73 | 0.0 | 6.0 | 0.00 | 0.03 | 0.00 | 84 | 1014.1 | |
| 20260510134701 | 73 | 0.0 | 6.0 | 0.00 | 0.03 | 0.00 | 85 | 1014.0 | |
| 20260510134158 | 72 | 0.0 | 4.0 | 0.00 | 0.03 | 0.00 | 85 | 1014.0 | |
| 20260510133656 | 72 | 265 | 1.0 | 4.0 | 0.00 | 0.03 | 0.00 | 85 | 1013.9 |
| 20260510133152 | 72 | 265 | 1.0 | 3.0 | 0.00 | 0.03 | 0.00 | 86 | 1013.8 |
| 20260510132651 | 71 | 0.0 | 7.0 | 0.00 | 0.03 | 0.00 | 88 | 1013.7 | |
| 20260510132148 | 71 | 0.0 | 3.0 | 0.00 | 0.03 | 0.00 | 87 | 1013.6 | |
| 20260510131646 | 71 | 265 | 1.0 | 3.0 | 0.00 | 0.03 | 0.00 | 88 | 1013.5 |
| 20260510131142 | 70 | 0.0 | 2.0 | 0.00 | 0.03 | 0.00 | 88 | 1013.4 | |
| 20260510130641 | 70 | 0.0 | 2.0 | 0.00 | 0.03 | 0.00 | 89 | 1013.3 | |
| 20260510130138 | 70 | 0.0 | 3.0 | 0.00 | 0.03 | 0.00 | 89 | 1013.2 | |
| 20260510125635 | 69 | 0.0 | 3.0 | 0.00 | 0.03 | 0.00 | 90 | 1013.2 | |
| 20260510125132 | 69 | 0.0 | 2.0 | 0.00 | 0.03 | 0.00 | 90 | 1013.1 | |
| 20260510124630 | 69 | 0.0 | 2.0 | 0.00 | 0.03 | 0.00 | 90 | 1012.9 | |
| 20260510124128 | 69 | 0.0 | 3.0 | 0.00 | 0.03 | 0.00 | 91 | 1012.9 | |
| 20260510123625 | 69 | 0.0 | 3.0 | 0.00 | 0.03 | 0.00 | 91 | 1012.9 | |
| 20260510123122 | 68 | 0.0 | 0.0 | 0.00 | 0.03 | 0.00 | 91 | 1012.8 | |
| 20260510122620 | 68 | 0.0 | 0.0 | 0.00 | 0.03 | 0.00 | 91 | 1012.7 | |
| 20260510122118 | 68 | 0.0 | 1.0 | 0.00 | 0.03 | 0.00 | 91 | 1012.6 | |
| 20260510121615 | 68 | 0.0 | 1.0 | 0.00 | 0.03 | 0.00 | 91 | 1012.4 | |
| 20260510121112 | 68 | 0.0 | 0.0 | 0.00 | 0.03 | 0.00 | 91 | 1012.4 | |
| 20260510120610 | 68 | 0.0 | 0.0 | 0.00 | 0.03 | 0.00 | 91 | 1012.4 | |
| 20260510120108 | 68 | 0.0 | 0.0 | 0.00 | 0.03 | 0.00 | 91 | 1012.2 | |
| 20260510115605 | 68 | 0.0 | 0.0 | 0.00 | 0.03 | 0.00 | 91 | 1012.1 | |
| 20260510115102 | 68 | 0.0 | 0.0 | 0.00 | 0.03 | 0.00 | 90 | 1011.9 | |
| 20260510114600 | 68 | 0.0 | 0.0 | 0.00 | 0.03 | 0.00 | 90 | 1011.8 | |
| 20260510114058 | 68 | 0.0 | 0.0 | 0.00 | 0.03 | 0.00 | 90 | 1011.7 | |
| 20260510113555 | 68 | 0.0 | 0.0 | 0.00 | 0.03 | 0.00 | 90 | 1011.8 | |
| 20260510113052 | 68 | 0.0 | 0.0 | 0.00 | 0.03 | 0.00 | 90 | 1011.9 | |
| 20260510112555 | 69 | 0.0 | 0.0 | 0.00 | 0.03 | 0.00 | 89 | 1011.9 | |
| 20260510112046 | 69 | 0.0 | 0.0 | 0.00 | 0.03 | 0.00 | 89 | 1011.8 | |
| 20260510111545 | 69 | 0.0 | 0.0 | 0.00 | 0.03 | 0.00 | 89 | 1011.8 | |
| 20260510111042 | 69 | 0.0 | 2.0 | 0.00 | 0.03 | 0.00 | 89 | 1011.8 | |
| 20260510110540 | 69 | 0.0 | 2.0 | 0.00 | 0.03 | 0.00 | 89 | 1011.8 | |
| 20260510110036 | 69 | 0.0 | 0.0 | 0.00 | 0.03 | 0.00 | 88 | 1011.7 | |
| 20260510105535 | 69 | 0.0 | 0.0 | 0.00 | 0.03 | 0.00 | 88 | 1011.7 | |
| 20260510105032 | 69 | 0.0 | 0.0 | 0.00 | 0.03 | 0.00 | 88 | 1011.8 | |
| 20260510104529 | 69 | 0.0 | 1.0 | 0.00 | 0.03 | 0.00 | 87 | 1011.7 | |
| 20260510104026 | 69 | 0.0 | 1.0 | 0.00 | 0.03 | 0.00 | 87 | 1011.7 | |
| 20260510103524 | 69 | 0.0 | 0.0 | 0.00 | 0.03 | 0.00 | 88 | 1011.7 | |
| 20260510103022 | 69 | 0.0 | 0.0 | 0.00 | 0.03 | 0.00 | 87 | 1011.7 | |
| 20260510102519 | 70 | 0.0 | 0.0 | 0.00 | 0.03 | 0.00 | 87 | 1011.6 | |
| 20260510102016 | 70 | 0.0 | 0.0 | 0.00 | 0.03 | 0.00 | 87 | 1011.5 | |
| 20260510101514 | 70 | 0.0 | 2.0 | 0.00 | 0.03 | 0.00 | 86 | 1011.3 | |
| 20260510101012 | 70 | 0.0 | 2.0 | 0.00 | 0.03 | 0.00 | 86 | 1011.2 | |
| 20260510100509 | 70 | 0.0 | 2.0 | 0.00 | 0.03 | 0.00 | 86 | 1011.2 | |
| 20260510100006 | 70 | 0.0 | 2.0 | 0.00 | 0.03 | 0.00 | 86 | 1011.3 | |
| 20260510095504 | 70 | 0.0 | 2.0 | 0.00 | 0.03 | 0.00 | 86 | 1011.3 | |
| 20260510095002 | 70 | 0.0 | 2.0 | 0.00 | 0.03 | 0.00 | 86 | 1011.2 | |
| 20260510094501 | 70 | 0.0 | 2.0 | 0.00 | 0.03 | 0.00 | 86 | 1010.9 | |
| 20260510093956 | 70 | 0.0 | 2.0 | 0.00 | 0.03 | 0.00 | 85 | 1010.9 | |
| 20260510093454 | 70 | 0.0 | 3.0 | 0.00 | 0.03 | 0.00 | 85 | 1010.8 | |
| 20260510092952 | 70 | 0.0 | 4.0 | 0.00 | 0.03 | 0.00 | 85 | 1010.8 | |
| 20260510092449 | 70 | 0.0 | 4.0 | 0.00 | 0.03 | 0.00 | 85 | 1010.8 | |
| 20260510091946 | 70 | 0.0 | 4.0 | 0.00 | 0.03 | 0.00 | 85 | 1010.8 | |
| 20260510091444 | 70 | 265 | 1.0 | 4.0 | 0.00 | 0.03 | 0.00 | 85 | 1010.8 |
| 20260510090942 | 70 | 0.0 | 3.0 | 0.00 | 0.03 | 0.00 | 85 | 1010.9 | |
| 20260510090439 | 70 | 0.0 | 2.0 | 0.00 | 0.03 | 0.00 | 84 | 1010.9 | |
| 20260510085936 | 70 | 0.0 | 1.0 | 0.00 | 0.03 | 0.00 | 84 | 1010.9 | |
| 20260510085434 | 70 | 0.0 | 2.0 | 0.00 | 0.03 | 0.00 | 84 | 1010.9 | |
| 20260510084930 | 70 | 0.0 | 2.0 | 0.00 | 0.03 | 0.00 | 84 | 1010.8 | |
| 20260510084429 | 71 | 0.0 | 1.0 | 0.00 | 0.03 | 0.00 | 83 | 1010.9 | |
| 20260510083926 | 71 | 0.0 | 4.0 | 0.00 | 0.03 | 0.00 | 83 | 1010.9 | |
| 20260510083423 | 71 | 265 | 1.0 | 4.0 | 0.00 | 0.03 | 0.00 | 83 | 1010.9 |
| 20260510082920 | 71 | 0.0 | 4.0 | 0.00 | 0.03 | 0.00 | 83 | 1011.0 | |
| 20260510082418 | 71 | 0.0 | 1.0 | 0.00 | 0.03 | 0.00 | 83 | 1011.2 | |
| 20260510081916 | 71 | 0.0 | 0.0 | 0.00 | 0.03 | 0.00 | 82 | 1011.3 | |
| 20260510081413 | 71 | 0.0 | 0.0 | 0.00 | 0.03 | 0.00 | 82 | 1011.3 | |
| 20260510080910 | 71 | 0.0 | 0.0 | 0.00 | 0.03 | 0.00 | 82 | 1011.3 | |
| 20260510080408 | 72 | 0.0 | 0.0 | 0.00 | 0.03 | 0.00 | 81 | 1011.3 | |
| 20260510075905 | 72 | 0.0 | 3.0 | 0.00 | 0.03 | 0.00 | 81 | 1011.4 | |
| 20260510075403 | 72 | 0.0 | 3.0 | 0.00 | 0.03 | 0.00 | 81 | 1011.3 | |
| 20260510074859 | 72 | 0.0 | 6.0 | 0.00 | 0.03 | 0.00 | 80 | 1011.4 | |
| 20260510074358 | 72 | 265 | 1.0 | 6.0 | 0.00 | 0.03 | 0.00 | 80 | 1011.4 |
| 20260510073855 | 72 | 0.0 | 3.0 | 0.00 | 0.03 | 0.00 | 80 | 1011.5 | |
| 20260510073353 | 72 | 0.0 | 3.0 | 0.00 | 0.03 | 0.00 | 80 | 1011.5 | |
| 20260510072849 | 72 | 0.0 | 1.0 | 0.00 | 0.03 | 0.00 | 80 | 1011.6 | |
| 20260510072348 | 72 | 0.0 | 1.0 | 0.00 | 0.03 | 0.00 | 80 | 1011.6 | |
| 20260510071845 | 73 | 0.0 | 0.0 | 0.00 | 0.03 | 0.00 | 79 | 1011.5 | |
| 20260510071343 | 73 | 0.0 | 0.0 | 0.00 | 0.03 | 0.00 | 79 | 1011.5 | |
| 20260510070839 | 73 | 0.0 | 0.0 | 0.00 | 0.03 | 0.00 | 79 | 1011.6 | |
| 20260510070338 | 73 | 0.0 | 0.0 | 0.00 | 0.03 | 0.00 | 78 | 1011.5 | |
| 20260510065835 | 73 | 0.0 | 3.0 | 0.00 | 0.03 | 0.00 | 78 | 1011.4 | |
| 20260510065333 | 73 | 0.0 | 4.0 | 0.00 | 0.03 | 0.00 | 78 | 1011.4 | |
| 20260510064829 | 73 | 0.0 | 4.0 | 0.00 | 0.03 | 0.00 | 77 | 1011.3 | |
| 20260510064328 | 73 | 0.0 | 4.0 | 0.00 | 0.03 | 0.00 | 77 | 1011.2 | |
| 20260510063825 | 73 | 0.0 | 4.0 | 0.00 | 0.03 | 0.00 | 77 | 1011.3 | |
| 20260510063322 | 73 | 0.0 | 3.0 | 0.00 | 0.03 | 0.00 | 77 | 1011.3 | |
| 20260510062819 | 73 | 0.0 | 3.0 | 0.00 | 0.03 | 0.00 | 77 | 1011.3 | |
| 20260510062319 | 73 | 0.0 | 4.0 | 0.00 | 0.03 | 0.00 | 77 | 1011.3 | |
| 20260510061815 | 73 | 0.0 | 4.0 | 0.00 | 0.03 | 0.00 | 77 | 1011.3 | |
| 20260510061312 | 73 | 0.0 | 3.0 | 0.00 | 0.03 | 0.00 | 78 | 1011.3 | |
| 20260510060809 | 73 | 0.0 | 0.0 | 0.00 | 0.03 | 0.00 | 79 | 1011.3 | |
| 20260510060307 | 73 | 0.0 | 0.0 | 0.00 | 0.03 | 0.00 | 80 | 1011.3 | |
| 20260510055803 | 73 | 0.0 | 0.0 | 0.00 | 0.03 | 0.00 | 80 | 1011.3 | |
| 20260510055306 | 73 | 0.0 | 0.0 | 0.00 | 0.03 | 0.00 | 80 | 1011.3 | |
| 20260510054759 | 73 | 0.0 | 0.0 | 0.00 | 0.03 | 0.00 | 80 | 1011.3 | |
| 20260510054257 | 73 | 0.0 | 0.0 | 0.00 | 0.03 | 0.00 | 81 | 1011.3 | |
| 20260510053753 | 73 | 0.0 | 0.0 | 0.00 | 0.03 | 0.00 | 81 | 1011.3 | |
| 20260510053252 | 73 | 0.0 | 3.0 | 0.00 | 0.03 | 0.00 | 82 | 1011.3 | |
| 20260510052749 | 73 | 0.0 | 0.0 | 0.00 | 0.03 | 0.00 | 83 | 1011.3 | |
| 20260510052247 | 74 | 0.0 | 0.0 | 0.00 | 0.03 | 0.00 | 84 | 1011.2 | |
| 20260510051743 | 74 | 0.0 | 0.0 | 0.00 | 0.03 | 0.00 | 84 | 1011.2 | |
| 20260510051242 | 74 | 0.0 | 0.0 | 0.00 | 0.03 | 0.00 | 84 | 1011.3 | |
| 20260510050739 | 74 | 0.0 | 0.0 | 0.00 | 0.03 | 0.00 | 84 | 1011.3 | |
| 20260510050237 | 74 | 0.0 | 0.0 | 0.00 | 0.03 | 0.00 | 85 | 1011.2 | |
| 20260510045733 | 74 | 0.0 | 0.0 | 0.00 | 0.03 | 0.03 | 84 | 1011.2 | |
| 20260510045232 | 74 | 0.0 | 0.0 | 0.00 | 0.03 | 0.03 | 84 | 1011.2 | |
| 20260510044729 | 74 | 0.0 | 0.0 | 0.00 | 0.03 | 0.03 | 84 | 1011.2 | |
| 20260510044228 | 74 | 0.0 | 0.0 | 0.00 | 0.03 | 0.03 | 84 | 1011.2 | |
| 20260510043723 | 74 | 0.0 | 0.0 | 0.00 | 0.03 | 0.03 | 83 | 1011.2 | |
| 20260510043222 | 74 | 0.0 | 0.0 | 0.00 | 0.03 | 0.03 | 83 | 1011.2 | |
| 20260510042719 | 74 | 0.0 | 0.0 | 0.00 | 0.03 | 0.03 | 83 | 1011.2 | |
| 20260510042216 | 74 | 0.0 | 0.0 | 0.00 | 0.03 | 0.03 | 83 | 1011.3 | |
| 20260510041713 | 75 | 0.0 | 0.0 | 0.00 | 0.03 | 0.03 | 82 | 1011.3 | |
| 20260510041211 | 75 | 0.0 | 0.0 | 0.00 | 0.03 | 0.03 | 82 | 1011.4 | |
| 20260510040709 | 75 | 0.0 | 0.0 | 0.00 | 0.03 | 0.03 | 82 | 1011.3 | |
| 20260510040206 | 75 | 0.0 | 0.0 | 0.00 | 0.03 | 0.03 | 81 | 1011.3 | |
| 20260510035703 | 75 | 0.0 | 0.0 | 0.00 | 0.03 | 0.03 | 81 | 1011.2 | |
| 20260510035201 | 75 | 0.0 | 0.0 | 0.00 | 0.03 | 0.03 | 81 | 1011.2 | |
| 20260510034659 | 75 | 0.0 | 0.0 | 0.00 | 0.03 | 0.03 | 81 | 1011.1 | |
| 20260510034156 | 75 | 0.0 | 0.0 | 0.00 | 0.03 | 0.03 | 81 | 1011.0 | |
| 20260510033653 | 75 | 0.0 | 0.0 | 0.00 | 0.03 | 0.03 | 81 | 1011.1 | |
| 20260510033151 | 75 | 0.0 | 0.0 | 0.00 | 0.03 | 0.03 | 81 | 1011.0 | |
| 20260510032649 | 75 | 0.0 | 0.0 | 0.00 | 0.03 | 0.03 | 81 | 1010.9 | |
| 20260510032146 | 75 | 0.0 | 0.0 | 0.00 | 0.03 | 0.03 | 80 | 1010.9 | |
| 20260510031643 | 75 | 0.0 | 0.0 | 0.00 | 0.03 | 0.03 | 80 | 1010.9 | |
| 20260510031141 | 75 | 0.0 | 0.0 | 0.00 | 0.03 | 0.03 | 80 | 1010.8 | |
| 20260510030639 | 75 | 0.0 | 0.0 | 0.00 | 0.03 | 0.03 | 79 | 1010.8 | |
| 20260510030136 | 75 | 0.0 | 0.0 | 0.00 | 0.03 | 0.03 | 79 | 1010.7 | |
| 20260510025633 | 75 | 0.0 | 0.0 | 0.00 | 0.03 | 0.03 | 78 | 1010.6 | |
| 20260510025131 | 76 | 0.0 | 0.0 | 0.00 | 0.03 | 0.03 | 78 | 1010.5 | |
| 20260510024627 | 76 | 0.0 | 0.0 | 0.00 | 0.03 | 0.03 | 77 | 1010.4 | |
| 20260510024126 | 76 | 0.0 | 0.0 | 0.00 | 0.03 | 0.03 | 76 | 1010.3 | |
| 20260510023623 | 76 | 0.0 | 0.0 | 0.00 | 0.03 | 0.03 | 76 | 1010.2 | |
| 20260510023121 | 77 | 0.0 | 0.0 | 0.00 | 0.03 | 0.03 | 75 | 1010.2 | |
| 20260510022617 | 77 | 0.0 | 0.0 | 0.00 | 0.03 | 0.03 | 74 | 1010.1 | |
| 20260510022116 | 78 | 0.0 | 0.0 | 0.00 | 0.03 | 0.03 | 73 | 1010.0 | |
| 20260510021613 | 78 | 0.0 | 0.0 | 0.00 | 0.03 | 0.03 | 72 | 1010.0 | |
| 20260510021110 | 78 | 0.0 | 0.0 | 0.00 | 0.03 | 0.03 | 72 | 1009.9 | |
| 20260510020607 | 79 | 0.0 | 0.0 | 0.00 | 0.03 | 0.03 | 71 | 1009.8 | |
| 20260510020105 | 79 | 0.0 | 0.0 | 0.00 | 0.03 | 0.03 | 71 | 1009.7 | |
| 20260510015603 | 79 | 0.0 | 0.0 | 0.00 | 0.03 | 0.03 | 70 | 1009.7 | |
| 20260510015100 | 80 | 0.0 | 0.0 | 0.00 | 0.03 | 0.03 | 70 | 1009.5 | |
| 20260510014557 | 80 | 0.0 | 0.0 | 0.00 | 0.03 | 0.03 | 69 | 1009.5 | |
| 20260510014055 | 80 | 0.0 | 0.0 | 0.00 | 0.03 | 0.03 | 69 | 1009.4 | |
| 20260510013553 | 80 | 0.0 | 0.0 | 0.00 | 0.03 | 0.03 | 68 | 1009.3 | |
| 20260510013050 | 81 | 0.0 | 2.0 | 0.00 | 0.03 | 0.03 | 68 | 1009.3 | |
| 20260510012547 | 81 | 0.0 | 3.0 | 0.00 | 0.03 | 0.03 | 67 | 1009.3 | |
| 20260510012050 | 81 | 0.0 | 3.0 | 0.00 | 0.03 | 0.03 | 67 | 1009.3 | |
| 20260510011543 | 82 | 0.0 | 4.0 | 0.00 | 0.03 | 0.03 | 67 | 1009.3 | |
| 20260510011040 | 82 | 0.0 | 4.0 | 0.00 | 0.03 | 0.03 | 66 | 1009.3 | |
| 20260510010537 | 82 | 0.0 | 2.0 | 0.00 | 0.03 | 0.03 | 66 | 1009.3 | |
| 20260510010035 | 83 | 0.0 | 2.0 | 0.00 | 0.03 | 0.03 | 65 | 1009.2 | |
| 20260510005533 | 83 | 0.0 | 2.0 | 0.00 | 0.03 | 0.03 | 65 | 1009.2 | |
| 20260510005030 | 83 | 0.0 | 3.0 | 0.00 | 0.03 | 0.03 | 65 | 1009.1 | |
| 20260510004527 | 84 | 0.0 | 3.0 | 0.00 | 0.03 | 0.03 | 64 | 1009.1 | |
| 20260510004025 | 84 | 0.0 | 3.0 | 0.00 | 0.03 | 0.03 | 64 | 1009.0 | |
| 20260510003523 | 85 | 0.0 | 3.0 | 0.00 | 0.03 | 0.03 | 63 | 1009.0 | |
| 20260510003020 | 85 | 0.0 | 3.0 | 0.00 | 0.03 | 0.03 | 62 | 1008.9 | |
| 20260510002517 | 86 | 0.0 | 2.0 | 0.00 | 0.03 | 0.03 | 62 | 1008.9 | |
| 20260510002015 | 86 | 0.0 | 2.0 | 0.00 | 0.03 | 0.03 | 62 | 1008.9 | |
| 20260510001511 | 87 | 0.0 | 2.0 | 0.00 | 0.03 | 0.03 | 60 | 1008.8 | |
| 20260510001009 | 87 | 0.0 | 4.0 | 0.00 | 0.03 | 0.03 | 60 | 1008.8 | |
| 20260510000507 | 88 | 267 | 1.0 | 4.0 | 0.00 | 0.03 | 0.03 | 58 | 1008.7 |
| 20260510000004 | 88 | 1.0 | 3.0 | 0.00 | 0.03 | 0.03 | 57 | 1008.6 | |
| 20260509235500 | 89 | 267 | 1.0 | 3.0 | 0.00 | 0.03 | 0.03 | 55 | 1008.6 |
| 20260509234959 | 89 | 0.0 | 1.0 | 0.00 | 0.03 | 0.03 | 54 | 1008.6 | |
| 20260509234457 | 89 | 0.0 | 2.0 | 0.00 | 0.03 | 0.03 | 53 | 1008.5 | |
| 20260509233956 | 89 | 0.0 | 2.0 | 0.00 | 0.03 | 0.03 | 53 | 1008.5 | |
| 20260509233450 | 90 | 0.0 | 2.0 | 0.00 | 0.03 | 0.03 | 52 | 1008.5 | |
| 20260509232949 | 90 | 0.0 | 1.0 | 0.00 | 0.03 | 0.03 | 52 | 1008.4 | |
| 20260509232446 | 90 | 0.0 | 0.0 | 0.00 | 0.03 | 0.03 | 53 | 1008.4 | |
| 20260509231944 | 91 | 0.0 | 0.0 | 0.00 | 0.03 | 0.03 | 50 | 1008.4 | |
| 20260509231440 | 90 | 0.0 | 0.0 | 0.00 | 0.03 | 0.03 | 53 | 1008.4 | |
| 20260509230939 | 90 | 0.0 | 0.0 | 0.00 | 0.03 | 0.03 | 51 | 1008.3 | |
| 20260509230436 | 90 | 0.0 | 1.0 | 0.00 | 0.03 | 0.03 | 53 | 1008.4 | |
| 20260509225934 | 90 | 0.0 | 2.0 | 0.00 | 0.03 | 0.03 | 52 | 1008.4 | |
| 20260509225430 | 90 | 0.0 | 2.0 | 0.00 | 0.03 | 0.03 | 51 | 1008.4 | |
| 20260509224929 | 91 | 0.0 | 2.0 | 0.00 | 0.03 | 0.03 | 51 | 1008.4 | |
| 20260509224426 | 91 | 0.0 | 2.0 | 0.00 | 0.03 | 0.03 | 50 | 1008.4 | |
| 20260509223924 | 91 | 0.0 | 0.0 | 0.00 | 0.03 | 0.03 | 52 | 1008.5 | |
| 20260509223420 | 91 | 0.0 | 2.0 | 0.00 | 0.03 | 0.03 | 51 | 1008.5 | |
| 20260509222919 | 90 | 0.0 | 2.0 | 0.00 | 0.03 | 0.03 | 50 | 1008.4 | |
| 20260509222416 | 90 | 0.0 | 2.0 | 0.00 | 0.03 | 0.03 | 51 | 1008.4 | |
| 20260509221914 | 90 | 0.0 | 3.0 | 0.00 | 0.03 | 0.03 | 51 | 1008.4 | |
| 20260509221410 | 90 | 267 | 1.0 | 3.0 | 0.00 | 0.03 | 0.03 | 50 | 1008.3 |
| 20260509220909 | 91 | 0.0 | 1.0 | 0.00 | 0.03 | 0.03 | 48 | 1008.4 | |
| 20260509220406 | 90 | 0.0 | 1.0 | 0.00 | 0.03 | 0.03 | 52 | 1008.4 | |
| 20260509215904 | 90 | 0.0 | 1.0 | 0.00 | 0.03 | 0.03 | 50 | 1008.5 | |
| 20260509215400 | 90 | 0.0 | 0.0 | 0.00 | 0.03 | 0.03 | 55 | 1008.6 | |
| 20260509214858 | 90 | 0.0 | 0.0 | 0.00 | 0.03 | 0.03 | 51 | 1008.5 | |
| 20260509214356 | 89 | 0.0 | 1.0 | 0.00 | 0.03 | 0.03 | 53 | 1008.6 | |
| 20260509213853 | 89 | 0.0 | 3.0 | 0.00 | 0.03 | 0.03 | 56 | 1008.7 | |
| 20260509213350 | 89 | 0.0 | 3.0 | 0.00 | 0.03 | 0.03 | 57 | 1008.7 | |
| 20260509212848 | 89 | 267 | 1.0 | 4.0 | 0.00 | 0.03 | 0.03 | 56 | 1008.9 |
| 20260509212344 | 89 | 267 | 1.0 | 7.0 | 0.00 | 0.03 | 0.03 | 55 | 1008.9 |
| 20260509211843 | 90 | 0.0 | 7.0 | 0.00 | 0.03 | 0.03 | 53 | 1009.0 | |
| 20260509211340 | 91 | 0.0 | 2.0 | 0.00 | 0.03 | 0.03 | 52 | 1009.0 | |
| 20260509210838 | 91 | 0.0 | 2.0 | 0.00 | 0.03 | 0.03 | 49 | 1009.1 | |
| 20260509210334 | 91 | 0.0 | 2.0 | 0.00 | 0.03 | 0.03 | 50 | 1009.1 | |
| 20260509205833 | 90 | 0.0 | 2.0 | 0.00 | 0.03 | 0.03 | 49 | 1009.2 | |
| 20260509205330 | 90 | 0.0 | 0.0 | 0.00 | 0.03 | 0.03 | 53 | 1009.2 | |
| 20260509204828 | 89 | 0.0 | 1.0 | 0.00 | 0.03 | 0.03 | 56 | 1009.3 | |
| 20260509204324 | 89 | 0.0 | 1.0 | 0.00 | 0.03 | 0.03 | 55 | 1009.4 | |
| 20260509203823 | 89 | 0.0 | 1.0 | 0.00 | 0.03 | 0.03 | 56 | 1009.5 | |
| 20260509203320 | 89 | 0.0 | 2.0 | 0.00 | 0.03 | 0.03 | 59 | 1009.6 | |
| 20260509202818 | 88 | 0.0 | 2.0 | 0.00 | 0.03 | 0.03 | 57 | 1009.7 | |
| 20260509202314 | 88 | 0.0 | 2.0 | 0.00 | 0.03 | 0.03 | 53 | 1009.8 | |
| 20260509201813 | 88 | 0.0 | 2.0 | 0.00 | 0.03 | 0.03 | 55 | 1010.0 | |
| 20260509201310 | 87 | 0.0 | 3.0 | 0.00 | 0.03 | 0.03 | 55 | 1010.1 | |
| 20260509200808 | 87 | 0.0 | 3.0 | 0.00 | 0.03 | 0.03 | 54 | 1010.2 | |
| 20260509200304 | 87 | 0.0 | 1.0 | 0.00 | 0.03 | 0.03 | 59 | 1010.3 | |
| 20260509195803 | 87 | 0.0 | 2.0 | 0.00 | 0.03 | 0.03 | 55 | 1010.3 | |
| 20260509195300 | 86 | 0.0 | 2.0 | 0.00 | 0.03 | 0.03 | 55 | 1010.3 | |
| 20260509194757 | 86 | 0.0 | 6.0 | 0.00 | 0.03 | 0.03 | 54 | 1010.3 |